When you browse on this site, cookies collect data to enhance your experience and personalize the content and advertising you see.
Visit our Privacy Policy to learn more. By continuing to use the site, you agree to this use of cookies and data.
  • In Lithuania
  • List of Countries
  • For 7 days
  • Water Temperature
  • Weather Map
  • Weather Widgets
  • user-avatar
    Login

    Hourly Weather Kurytyba

    Today, 22 January, Wednesday

    Time Temperature Precipitation Wind Pressure Humidity
    00:00 +18°C° 0 mm 2 mps 679 mmHg 88%
    01:00 +17°C° 0 mm 2 mps 678 mmHg 88%
    02:00 +17°C° 0 mm 2 mps 678 mmHg 87%
    03:00 +18°C° 0 mm 1 mps 678 mmHg 87%
    04:00 +16°C° 0 mm 1 mps 678 mmHg 87%
    05:00 +16°C° 0 mm 1 mps 678 mmHg 87%
    06:00 +15°C° 0 mm 0 mps 678 mmHg 88%
    07:00 +18°C° 0 mm 1 mps 678 mmHg 87%
    08:00 +18°C° 0 mm 1 mps 678 mmHg 87%
    09:00 +18°C° 0 mm 1 mps 679 mmHg 87%
    10:00 +19°C° 0.1 mm 1 mps 679 mmHg 87%
    11:00 +19°C° 0.1 mm 1 mps 679 mmHg 87%
    12:00 +19°C° 0.1 mm 1 mps 679 mmHg 88%
    13:00 +19°C° 0.3 mm 1 mps 679 mmHg 86%
    14:00 +18°C° 0.3 mm 1 mps 678 mmHg 85%
    15:00 +18°C° 0.3 mm 1 mps 678 mmHg 83%
    16:00 +18°C° 0.2 mm 1 mps 678 mmHg 86%
    17:00 +16°C° 0.2 mm 1 mps 678 mmHg 88%
    18:00 +16°C° 0.2 mm 1 mps 678 mmHg 90%
    19:00 +16°C° 0.4 mm 1 mps 678 mmHg 92%
    20:00 +16°C° 0.4 mm 1 mps 678 mmHg 93%
    21:00 +15°C° 0.4 mm 1 mps 679 mmHg 95%
    22:00 +15°C° 0.2 mm 1 mps 678 mmHg 95%
    23:00 +15°C° 0.2 mm 1 mps 678 mmHg 95%

    Tomorrow, 23 January, Thursday

    Time Temperature Precipitation Wind Pressure Humidity
    00:00 +15°C° 0.2 mm 1 mps 678 mmHg 95%
    01:00 +15°C° 0 mm 1 mps 678 mmHg 94%
    02:00 +15°C° 0 mm 1 mps 677 mmHg 94%
    03:00 +15°C° 0 mm 1 mps 676 mmHg 94%
    04:00 +15°C° 0.1 mm 1 mps 677 mmHg 95%
    05:00 +15°C° 0.1 mm 1 mps 677 mmHg 96%
    06:00 +15°C° 0.1 mm 1 mps 677 mmHg 96%
    07:00 +16°C° 0.2 mm 1 mps 677 mmHg 96%
    08:00 +16°C° 0.2 mm 1 mps 678 mmHg 96%
    09:00 +18°C° 0.2 mm 1 mps 678 mmHg 96%
    10:00 +18°C° 0.1 mm 1 mps 678 mmHg 94%
    11:00 +18°C° 0.1 mm 1 mps 678 mmHg 92%
    12:00 +18°C° 0.1 mm 2 mps 678 mmHg 90%
    13:00 +18°C° 0.1 mm 2 mps 678 mmHg 90%
    14:00 +19°C° 0.1 mm 1 mps 677 mmHg 90%
    15:00 +19°C° 0.1 mm 1 mps 677 mmHg 90%
    16:00 +18°C° 0.1 mm 2 mps 677 mmHg 90%
    17:00 +17°C° 0.1 mm 2 mps 677 mmHg 90%
    18:00 +17°C° 0.1 mm 2 mps 677 mmHg 91%
    19:00 +17°C° 0.1 mm 2 mps 677 mmHg 91%
    20:00 +17°C° 0.1 mm 2 mps 677 mmHg 92%
    21:00 +16°C° 0.1 mm 2 mps 677 mmHg 92%
    22:00 +16°C° 0.3 mm 2 mps 677 mmHg 93%
    23:00 +16°C° 0.3 mm 2 mps 677 mmHg 93%

    Day after tomorrow, 24 January, Friday

    Time Temperature Precipitation Wind Pressure Humidity
    00:00 +16°C° 0.3 mm 3 mps 677 mmHg 93%
    01:00 +16°C° 0.1 mm 2 mps 677 mmHg 94%
    02:00 +16°C° 0.1 mm 2 mps 676 mmHg 94%
    03:00 +16°C° 0.1 mm 2 mps 676 mmHg 94%
    04:00 +16°C° 0 mm 2 mps 676 mmHg 93%
    05:00 +16°C° 0 mm 1 mps 676 mmHg 93%
    06:00 +16°C° 0 mm 1 mps 676 mmHg 92%
    07:00 +18°C° 0 mm 1 mps 677 mmHg 84%
    08:00 +19°C° 0 mm 2 mps 677 mmHg 75%
    09:00 +20°C° 0 mm 2 mps 678 mmHg 67%
    10:00 +21°C° 0.1 mm 2 mps 678 mmHg 64%
    11:00 +23°C° 0.1 mm 2 mps 678 mmHg 61%
    12:00 +25°C° 0.1 mm 2 mps 678 mmHg 58%
    13:00 +25°C° 0.5 mm 2 mps 677 mmHg 61%
    14:00 +25°C° 0.5 mm 2 mps 677 mmHg 64%
    15:00 +25°C° 0.5 mm 3 mps 677 mmHg 67%
    16:00 +24°C° 0.4 mm 2 mps 677 mmHg 71%
    17:00 +23°C° 0.4 mm 2 mps 677 mmHg 75%
    18:00 +21°C° 0.4 mm 2 mps 677 mmHg 79%
    19:00 +20°C° 0 mm 2 mps 677 mmHg 84%
    20:00 +18°C° 0 mm 2 mps 677 mmHg 88%
    21:00 +17°C° 0 mm 2 mps 677 mmHg 92%
    22:00 +17°C° 0 mm 2 mps 678 mmHg 93%
    23:00 +16°C° 0 mm 1 mps 678 mmHg 94%

    25 January, Saturday

    Time Temperature Precipitation Wind Pressure Humidity
    00:00 +16°C° 0 mm 1 mps 678 mmHg 94%
    01:00 +16°C° 0 mm 1 mps 678 mmHg 94%
    02:00 +15°C° 0 mm 0 mps 677 mmHg 94%
    03:00 +15°C° 0 mm 0 mps 677 mmHg 95%
    04:00 +14°C° 0 mm 0 mps 677 mmHg 95%
    05:00 +14°C° 0 mm 0 mps 677 mmHg 95%
    06:00 +14°C° 0 mm 0 mps 678 mmHg 95%
    07:00 +16°C° 0 mm 0 mps 678 mmHg 84%
    08:00 +20°C° 0 mm 1 mps 679 mmHg 73%
    09:00 +23°C° 0 mm 1 mps 680 mmHg 62%
    10:00 +25°C° 0 mm 1 mps 680 mmHg 55%
    11:00 +27°C° 0 mm 1 mps 680 mmHg 47%
    12:00 +29°C° 0 mm 2 mps 680 mmHg 40%
    13:00 +30°C° 0 mm 2 mps 680 mmHg 37%
    14:00 +30°C° 0 mm 2 mps 679 mmHg 35%
    15:00 +31°C° 0 mm 2 mps 679 mmHg 33%
    16:00 +30°C° 0 mm 2 mps 678 mmHg 38%
    17:00 +29°C° 0 mm 1 mps 678 mmHg 44%
    18:00 +28°C° 0 mm 1 mps 678 mmHg 49%
    19:00 +25°C° 0 mm 1 mps 678 mmHg 59%
    20:00 +23°C° 0 mm 1 mps 678 mmHg 69%
    21:00 +21°C° 0 mm 1 mps 678 mmHg 79%
    22:00 +21°C° 0 mm 1 mps 678 mmHg 81%
    23:00 +20°C° 0 mm 1 mps 678 mmHg 83%

    26 January, Sunday

    Time Temperature Precipitation Wind Pressure Humidity
    00:00 +20°C° 0 mm 1 mps 679 mmHg 85%
    01:00 +19°C° 0 mm 1 mps 678 mmHg 86%
    02:00 +17°C° 0 mm 0 mps 678 mmHg 87%
    03:00 +17°C° 0 mm 0 mps 678 mmHg 88%
    04:00 +17°C° 0 mm 0 mps 678 mmHg 89%
    05:00 +16°C° 0 mm 0 mps 678 mmHg 90%
    06:00 +16°C° 0 mm 0 mps 679 mmHg 91%
    07:00 +19°C° 0 mm 0 mps 679 mmHg 80%
    08:00 +23°C° 0 mm 1 mps 680 mmHg 69%
    09:00 +26°C° 0 mm 1 mps 681 mmHg 58%
    10:00 +28°C° 0 mm 1 mps 681 mmHg 51%
    11:00 +30°C° 0 mm 1 mps 681 mmHg 44%
    12:00 +32°C° 0 mm 2 mps 681 mmHg 38%
    13:00 +32°C° 0 mm 2 mps 681 mmHg 37%
    14:00 +32°C° 0 mm 2 mps 680 mmHg 36%
    15:00 +32°C° 0 mm 2 mps 679 mmHg 35%
    16:00 +31°C° 0.1 mm 1 mps 679 mmHg 40%
    17:00 +30°C° 0.1 mm 1 mps 679 mmHg 45%
    18:00 +27°C° 0.1 mm 0 mps 679 mmHg 50%
    19:00 +27°C° 0 mm 1 mps 679 mmHg 62%
    20:00 +24°C° 0 mm 1 mps 679 mmHg 73%
    21:00 +22°C° 0 mm 1 mps 679 mmHg 84%
    22:00 +22°C° 0 mm 1 mps 679 mmHg 85%
    23:00 +22°C° 0 mm 1 mps 680 mmHg 85%

    27 January, Monday

    Time Temperature Precipitation Wind Pressure Humidity
    00:00 +21°C° 0 mm 1 mps 680 mmHg 86%
    01:00 +21°C° 0 mm 1 mps 680 mmHg 87%
    02:00 +21°C° 0 mm 1 mps 679 mmHg 88%
    03:00 +18°C° 0 mm 0 mps 679 mmHg 89%
    04:00 +18°C° 0 mm 0 mps 680 mmHg 88%
    05:00 +18°C° 0 mm 0 mps 680 mmHg 86%
    06:00 +18°C° 0 mm 0 mps 680 mmHg 84%
    07:00 +23°C° 0 mm 1 mps 681 mmHg 74%
    08:00 +25°C° 0 mm 1 mps 682 mmHg 64%
    09:00 +28°C° 0 mm 1 mps 683 mmHg 53%
    10:00 +29°C° 0.1 mm 1 mps 683 mmHg 48%
    11:00 +30°C° 0.1 mm 1 mps 683 mmHg 44%
    12:00 +32°C° 0.1 mm 1 mps 683 mmHg 39%
    13:00 +31°C° 0 mm 1 mps 682 mmHg 40%
    14:00 +31°C° 0 mm 1 mps 681 mmHg 41%
    15:00 +31°C° 0 mm 1 mps 681 mmHg 42%
    16:00 +30°C° 0.1 mm 1 mps 680 mmHg 48%
    17:00 +29°C° 0.1 mm 1 mps 680 mmHg 53%
    18:00 +28°C° 0.1 mm 1 mps 680 mmHg 58%
    19:00 +26°C° 0.1 mm 1 mps 680 mmHg 67%
    20:00 +24°C° 0.1 mm 1 mps 680 mmHg 76%
    21:00 +22°C° 0.1 mm 1 mps 680 mmHg 85%
    22:00 +22°C° 0 mm 1 mps 680 mmHg 86%
    23:00 +22°C° 0 mm 1 mps 681 mmHg 86%
    Show more